Location: Unspecified
(52.4292°N, 19.3359°E)
Time: 00:55:47
(UTC+02:00)

Vanguard 1 Rocket - Pass Details

Date: 22 May 2024
Orbit: 649 x 4221 km, 34.3° (Epoch: 13 June)

Event Time Altitude Azimuth Distance (km) Brightness Sun altitude
Rises 13:59:02 0° 261° (W) 6,416 12.1 54.6°
Reaches altitude 10° 14:05:11 10° 249° (WSW) 4,679 11.7 54.1°
Maximum altitude 14:13:03 21° 207° (SSW) 2,914 11.1 53.3°
Drops below altitude 10° 14:18:22 10° 161° (SSE) 3,004 10.5 52.8°
Sets 14:21:15 0° 144° (SE) 3,620 10.6 52.5°
